Regional Weather Roundup
Issued by NWS

Home | Current Version | Previous Version | Graphics & Text | Print | Product List | Glossary On
Versions: 1 2 3 4 5 6 7 8 9 10 11 12 13 14 15 16 17 18 19 20 21 22 23 24 25 26 27 28 29 30 31 32 33 34 35 36 37 38 39 40 41 42 43 44 45 46 47 48 49 50
000
ASUS43 KOAX 241202
RWRNE

WEATHER ROUNDUP FOR NEBRASKA
NATIONAL WEATHER SERVICE OMAHA NE
700 AM CDT SUN MAY 24 2015

NOTES: SATELLITE DATA IS BEING USED TO AUGMENT CLOUD COVER ABOVE
       12000 FEET.
       "FAIR" INDICATES FEW OR NO CLOUDS BELOW 12,000 FEET WITH NO
       SIGNIFICANT WEATHER AND/OR OBSTRUCTIONS TO VISIBILITY.

  * THESE STATIONS DO NOT REPORT WEATHER SUCH AS RAIN...SNOW OR FOG.

NEZ001>004-019>022-054>056-241300-
NEBRASKA PANHANDLE

CITY           SKY/WX    TMP DP  RH WIND       PRES   REMARKS
SCOTTSBLUFF    CLOUDY    51  51 100 E5        29.90R FOG
6HR MIN TEMP:  51; 6HR MAX TEMP:  54; 6HR PCP:  0.08;

ALLIANCE       CLOUDY    50  49  96 N3        29.90R
6HR MIN TEMP:  50; 6HR MAX TEMP:  53; 6HR PCP:  1.01;

CHADRON        LGT RAIN  52  51  97 CALM      29.92R FOG
6HR MIN TEMP:  52; 6HR MAX TEMP:  54; 6HR PCP:  0.16;

SIDNEY         FOG       49  49 100 NW5       29.90S VSB 1/4
6HR MIN TEMP:  49; 6HR MAX TEMP:  51; 6HR PCP:  0.02;

$$

NEZ057>060-069>072-079>082-241300-
SOUTHWEST NEBRASKA

CITY           SKY/WX    TMP DP  RH WIND       PRES   REMARKS
NORTH PLATTE   CLOUDY    56  54  93 NE3       29.91R
6HR MIN TEMP:  56; 6HR MAX TEMP:  56; 6HR PCP:  0.01;

IMPERIAL       CLOUDY    54  53  97 S6        29.88R
6HR MIN TEMP:  54; 6HR MAX TEMP:  55; 6HR PCP:  0.02;

MCCOOK         CLOUDY    56  55  97 SE9       29.88S
6HR MIN TEMP:  56; 6HR MAX TEMP:  57; 6HR PCP: TRACE;

$$

NEZ005>010-023>029-035>040-094-241300-
NORTH CENTRAL NEBRASKA

CITY           SKY/WX    TMP DP  RH WIND       PRES   REMARKS
VALENTINE      LGT RAIN  54  54 100 E8        29.93S FOG
6HR MIN TEMP:  54; 6HR MAX TEMP:  55; 6HR PCP:  0.06;

BROKEN BOW     LGT RAIN  58  57  97 SE5       29.92R FOG
6HR MIN TEMP:  57; 6HR MAX TEMP:  58; 6HR PCP:  0.08;

ORD            CLOUDY    57  57 100 SE3       29.90R FOG
6HR MIN TEMP:  57; 6HR MAX TEMP:  57; 6HR PCP:  0.02;

$$

NEZ041-046>049-061>064-073>077-083>087-241300-
SOUTH CENTRAL NEBRASKA

CITY           SKY/WX    TMP DP  RH WIND       PRES   REMARKS
GRAND ISLAND   CLOUDY    59  58  96 CALM      29.91R FOG
6HR MIN TEMP:  58; 6HR MAX TEMP:  59; 6HR PCP:  0.01;

HASTINGS       FOG       59  58  96 VRB3      29.90R VSB 1/2
6HR MIN TEMP:  58; 6HR MAX TEMP:  59; 6HR PCP:  0.01;

KEARNEY *      CLOUDY    57  55  94 S3        29.91S
$$

NEZ011>018-030>034-042>045-241300-
NORTHEAST NEBRASKA

CITY           SKY/WX    TMP DP  RH WIND       PRES   REMARKS
NORFOLK        RAIN     N/A N/A N/A E8        29.89S
                                      6HR PCP:  0.13;

COLUMBUS *     CLOUDY    57  54  88 E8        29.92R
TEKAMAH        LGT RAIN  60  59  96 E9        29.89F FOG
6HR MIN TEMP:  60; 6HR MAX TEMP:  62; 6HR PCP:  0.07;

$$

NEZ050>053-065>068-078-088>093-241300-
SOUTHEAST NEBRASKA

CITY           SKY/WX    TMP DP  RH WIND       PRES   REMARKS
LINCOLN        CLOUDY    60  59  96 CALM      29.88R FOG
6HR MIN TEMP:  60; 6HR MAX TEMP:  62; 6HR PCP:  0.19;

OMAHA EPPLEY   CLOUDY    61  59  93 E10       29.88F FOG
6HR MIN TEMP:  60; 6HR MAX TEMP:  63; 6HR PCP:  0.17;

FALLS CITY     LGT RAIN  62  60  93 SE9       29.87R FOG
6HR MIN TEMP:  61; 6HR MAX TEMP:  63; 6HR PCP:  0.15;

$$

NEZ044-045-051>053-067-241300-
OMAHA AREA

CITY           SKY/WX    TMP DP  RH WIND       PRES   REMARKS
OMAHA EPPLEY   CLOUDY    61  59  93 E10       29.88F FOG
6HR MIN TEMP:  60; 6HR MAX TEMP:  63; 6HR PCP:  0.17;

$$



USA.gov is the U.S. government's official web portal to all federal, state and local government web resources and services.